Regional Weather Roundup
Issued by NWS

Home | Current Version | Previous Version | Graphics & Text | Print | Product List | Glossary On
Versions: 1 2 3 4 5 6 7 8 9 10 11 12 13 14 15 16 17 18 19 20 21 22 23 24 25 26 27 28 29 30 31 32 33 34 35 36 37 38 39 40 41 42 43 44 45 46 47 48 49 50
000
ASUS43 KIND 232109
RWRIN

WEATHER ROUNDUP FOR INDIANA
NATIONAL WEATHER SERVICE INDIANAPOLIS IN
500 PM EDT FRI JUN 23 2017

NOTE: "FAIR" INDICATES FEW OR NO CLOUDS BELOW 12,000 FEET WITH NO
SIGNIFICANT WEATHER AND/OR OBSTRUCTIONS TO VISIBILITY.

* - STATION DOES NOT REPORT WEATHER SUCH AS PRECIPITATION OR FOG.

+ - STATION NOT QUALITY CONTROLLED BY THE NATIONAL WEATHER SERVICE.
    USE DATA WITH CAUTION...ESPECIALLY DEWPOINT AND RELATIVE
    HUMIDITY OBSERVATIONS.

INZ001>003-010>013-019-020-232200-
NORTHWEST INDIANA

CITY           SKY/WX    TMP DP  RH WIND       PRES   REMARKS
GARY /AIRPORT/ PTSUNNY   79  52  38 CALM      29.73R
KNOX *+        CLOUDY    73  46  38 NW8       29.73S
LA PORTE +     PTSUNNY   73  57  57 NW6       29.75R
MICHIGAN CITY+ CLOUDY    73  57  56 W3        29.74S
MONTICELLO +   CLOUDY    74  62  65 N6        29.73S
RENSSELAER +   CLOUDY    75  50  41 N6        29.74S
VALPARAISO     PTSUNNY   79  55  43 NE7       29.74S

$$

LMZ046-743>745-232200-
SOUTHERN LAKE MICHIGAN

STATION/POSITION TIME  TEMP    WIND        PRES    WAVE
                       AIR SEA DIR/SP/G            HT
                 (UTC) (F)     (DEG/KT/KT) (MB)    (FT)
BURNS HARBOR     2040   73      70/  5/  6 1007.1S
MICHIGAN CITY    2040   68     220/  4/  5   N/A
5NW MICH CITY    2100   69 69  220/  2/  4   N/A     1

$$

INZ004-005-014>016-021>024-232200-
NORTH CENTRAL INDIANA

CITY           SKY/WX    TMP DP  RH WIND       PRES   REMARKS
ELKHART        PTSUNNY   75  59  57 W12       29.72R
GOSHEN         CLOUDY    74  59  59 NW9       29.71R
LOGANSPORT +   CLOUDY    72  61  68 NW8       29.73S
PERU/GRISSOM   PTSUNNY   73  63  72 N8        29.71S
ROCHESTER +    CLOUDY    75  63  64 NW8       29.73S
SOUTH BEND     PTSUNNY   75  58  55 NW8       29.73R
WARSAW +       CLOUDY    72  61  68 NW9       29.72S

$$

INZ006>009-017-018-025>027-232200-
NORTHEAST INDIANA

CITY           SKY/WX    TMP DP  RH WIND       PRES   REMARKS
AUBURN +       CLOUDY    72  61  68 NW9G17    29.69F
FORT WAYNE     CLOUDY    73  64  73 NW9       29.69F
HUNTINGTON +   CLOUDY    71  65  81 NW9G17    29.70S
KENDALLVILLE + CLOUDY   N/A N/A N/A NW5       29.71S

$$

INZ028-029-035-036-043>045-051>053-232200-
WEST CENTRAL INDIANA

CITY           SKY/WX    TMP DP  RH WIND       PRES   REMARKS
CRAWFORDSVL +  CLOUDY    68  68 100 N5        29.73S
GREENCASTLE +  CLOUDY    72  70  94 NW5       29.72S
LAFAYETTE      CLOUDY    74  62  66 N12       29.73R
TERRE HAUTE    LGT RAIN  72  68  87 N8        29.72R

$$

INZ030>032-037>040-046>048-054>057-064-065-232200-
CENTRAL INDIANA

CITY           SKY/WX    TMP DP  RH WIND       PRES   REMARKS
CP ATTERBURY + CLOUDY    72  66  83 CALM      29.71F
COLUMBUS       PTSUNNY   73  68  83 N5        29.71S
FRANKFORT +    CLOUDY    73  68  83 N9        29.75R
GREENWOOD *+   CLOUDY    72  68  89 NW3       29.72S
INDIANAPOLIS   CLOUDY    72  70  93 NW8       29.70F
-EAGLE CREEK   CLOUDY    71  67  87 N9        29.71S
KOKOMO +       CLOUDY    72  65  78 NW13      29.73R
MARION +       CLOUDY    70  66  88 NW7       29.72S
MT COMFORT *+  CLOUDY    70  68  94 W5        29.71F
SHELBYVILLE    CLOUDY    72  66  81 SW5       29.70S
ZIONSVILLE +   CLOUDY    68  66  94 N8        29.73S

$$

INZ033-034-041-042-049-050-058-059-232200-
EAST CENTRAL INDIANA

CITY           SKY/WX    TMP DP  RH WIND       PRES   REMARKS
MUNCIE         CLOUDY    72  68  87 W8        29.71S
RICHMOND +     LGT RAIN  66  64  94 SW3       29.74S

$$

INZ060-061-067>069-081>083-085>088-232200-
SOUTHWEST INDIANA

CITY           SKY/WX    TMP DP  RH WIND       PRES   REMARKS
EVANSVILLE     CLOUDY    78  73  84 CALM      29.70R
HUNTINGBURG *+ CLOUDY    75  73  93 NW3       29.68F
WASHINGTON +   DRIZZLE   75  73  93 W6        29.68F

$$

INZ062-063-066-070>080-084-089>092-232200-
SOUTH CENTRAL AND SOUTHEAST INDIANA

CITY           SKY/WX    TMP DP  RH WIND       PRES   REMARKS
BEDFORD +      CLOUDY    75  70  83 CALM      29.68F
BLOOMINGTON    CLOUDY    75  71  87 CALM      29.69F
MADISON *+     CLOUDY    72  70  94 W3        29.73S
NORTH VERNON + LGT RAIN  72  70  94 CALM      29.71F
SEYMOUR +      RAIN      75  73  94 CALM      29.69F

$$




USA.gov is the U.S. government's official web portal to all federal, state and local government web resources and services.